OSE125 LOWW-LIML

Flight info

Callsign OSE125
Flight time 1h 6m
Altitude 34000
Route OSPEN DCT ABRUK DCT SETAL DCT DETSA/N0488F330 DCT BAKOR DCT RENTA DCT ATPED DCT LUSIL
Aircraft A359/H-SDE2E3GHIJ3J4J5LM1ORWXY/LB1D1

Departure

Time 2026-04-23 14:04
Airport Vienna International Airport (LOWW)

Arrival

Time 2026-04-23 15:10
Airport Milano Linate Airport (LIML)
Time Latitude Longitude Altitude Speed Heading
2026-04-23 13:59 48.11584 16.57732 599 ft 0 kts 315°
2026-04-23 14:00 48.11588 16.57727 599 ft 8 kts 315°
2026-04-23 14:00 48.11776 16.57618 598 ft 26 kts 342°
2026-04-23 14:01 48.11871 16.57620 596 ft 9 kts 63°
2026-04-23 14:01 48.11868 16.57668 596 ft 0 kts 111°
2026-04-23 14:01 48.11868 16.57670 596 ft 0 kts 111°
2026-04-23 14:01 48.11866 16.57675 596 ft 3 kts 110°
2026-04-23 14:02 48.11848 16.57785 597 ft 0 kts 99°
2026-04-23 14:02 48.11842 16.57851 597 ft 2 kts 110°
2026-04-23 14:02 48.11820 16.57875 597 ft 0 kts 156°
2026-04-23 14:03 48.11819 16.57875 597 ft 0 kts 156°
2026-04-23 14:03 48.11472 16.58037 597 ft 86 kts 164°
2026-04-23 14:03 48.10659 16.58377 604 ft 152 kts 165°
2026-04-23 14:04 48.09908 16.58700 621 ft 188 kts 166°
2026-04-23 14:04 48.08120 16.59561 1242 ft 208 kts 165°
2026-04-23 14:04 48.07207 16.59914 1806 ft 205 kts 171°
2026-04-23 14:04 48.05803 16.60443 2397 ft 221 kts 160°
2026-04-23 14:05 48.04429 16.61747 2719 ft 252 kts 140°
2026-04-23 14:05 48.02614 16.64525 2828 ft 307 kts 133°
2026-04-23 14:05 48.01054 16.66575 3475 ft 277 kts 148°
2026-04-23 14:05 47.99457 16.67574 4166 ft 233 kts 178°
2026-04-23 14:06 47.97931 16.67203 4730 ft 223 kts 215°
2026-04-23 14:06 47.97061 16.66388 4992 ft 229 kts 225°
2026-04-23 14:06 47.95535 16.63889 5121 ft 262 kts 239°
2026-04-23 14:06 47.94356 16.61683 5406 ft 285 kts 237°
2026-04-23 14:07 47.93048 16.59307 5796 ft 305 kts 236°
2026-04-23 14:07 47.90509 16.54386 6542 ft 272 kts 253°
2026-04-23 14:07 47.89843 16.51919 6929 ft 240 kts 258°
2026-04-23 14:08 47.89470 16.50399 7201 ft 240 kts 262°
2026-04-23 14:08 47.89577 16.47252 7725 ft 231 kts 306°
2026-04-23 14:08 47.90473 16.45200 8148 ft 242 kts 312°
2026-04-23 14:08 47.91473 16.43080 8546 ft 258 kts 311°
2026-04-23 14:09 47.92479 16.40802 8945 ft 274 kts 309°
2026-04-23 14:09 47.93518 16.38312 9347 ft 289 kts 308°
2026-04-23 14:09 47.94200 16.36622 9581 ft 282 kts 308°
2026-04-23 14:09 47.95380 16.33319 10058 ft 278 kts 294°
2026-04-23 14:10 47.95572 16.30375 10203 ft 295 kts 269°
2026-04-23 14:10 47.94996 16.27403 10201 ft 304 kts 256°
2026-04-23 14:10 47.94497 16.25439 10206 ft 305 kts 256°
2026-04-23 14:10 47.93733 16.22471 10638 ft 308 kts 256°
2026-04-23 14:11 47.92720 16.18468 11381 ft 315 kts 256°
2026-04-23 14:11 47.92215 16.16441 11746 ft 318 kts 256°
2026-04-23 14:11 47.91191 16.12308 12484 ft 325 kts 256°
2026-04-23 14:11 47.90665 16.10184 12865 ft 328 kts 256°
2026-04-23 14:12 47.89606 16.05894 13609 ft 334 kts 256°
2026-04-23 14:12 47.88806 16.02654 14165 ft 338 kts 256°
2026-04-23 14:12 47.88265 16.00467 14539 ft 340 kts 256°
2026-04-23 14:12 47.87268 15.97239 15060 ft 349 kts 242°
2026-04-23 14:13 47.85091 15.93632 15816 ft 358 kts 221°
2026-04-23 14:13 47.83811 15.92137 16172 ft 360 kts 218°
2026-04-23 14:13 47.81794 15.89910 16708 ft 362 kts 217°
2026-04-23 14:13 47.79765 15.87694 17266 ft 363 kts 217°
2026-04-23 14:14 47.77745 15.85469 17829 ft 365 kts 217°
2026-04-23 14:14 47.75702 15.83195 18377 ft 366 kts 217°
2026-04-23 14:14 47.73000 15.80172 19106 ft 366 kts 217°
2026-04-23 14:14 47.70977 15.77904 19665 ft 366 kts 217°
2026-04-23 14:15 47.69651 15.76415 20025 ft 366 kts 217°
2026-04-23 14:15 47.66955 15.73388 20767 ft 365 kts 217°
2026-04-23 14:15 47.64927 15.71109 21327 ft 364 kts 217°
2026-04-23 14:15 47.62925 15.68862 21881 ft 362 kts 217°
2026-04-23 14:16 47.61603 15.67380 22249 ft 361 kts 217°
2026-04-23 14:16 47.59602 15.65141 22812 ft 358 kts 217°
2026-04-23 14:16 47.57629 15.62934 23360 ft 355 kts 217°
2026-04-23 14:16 47.55670 15.60747 23855 ft 354 kts 217°
2026-04-23 14:17 47.53718 15.58567 24240 ft 356 kts 217°
2026-04-23 14:17 47.51737 15.56355 24606 ft 358 kts 218°
2026-04-23 14:17 47.49769 15.54054 24950 ft 360 kts 227°
2026-04-23 14:17 47.48264 15.51149 25326 ft 357 kts 247°
2026-04-23 14:18 47.47391 15.47771 25679 ft 353 kts 258°
2026-04-23 14:18 47.46541 15.43119 26021 ft 359 kts 260°
2026-04-23 14:18 47.45898 15.39508 26279 ft 363 kts 259°
2026-04-23 14:18 47.45461 15.37118 26457 ft 367 kts 259°
2026-04-23 14:19 47.44777 15.33482 26701 ft 372 kts 258°
2026-04-23 14:19 47.44070 15.29788 26941 ft 377 kts 258°
2026-04-23 14:19 47.43345 15.26058 27178 ft 382 kts 258°
2026-04-23 14:19 47.42603 15.22273 27414 ft 387 kts 258°
2026-04-23 14:20 47.41850 15.18441 27645 ft 392 kts 257°
2026-04-23 14:20 47.40832 15.13292 27958 ft 398 kts 257°
2026-04-23 14:20 47.40311 15.10667 28114 ft 401 kts 257°
2026-04-23 14:20 47.39834 15.08262 28259 ft 404 kts 257°
2026-04-23 14:21 47.39403 15.06095 28386 ft 406 kts 257°
2026-04-23 14:21 47.38983 15.03982 28511 ft 408 kts 257°
2026-04-23 14:21 47.38459 15.01337 28667 ft 411 kts 257°
2026-04-23 14:21 47.37379 14.95886 28985 ft 416 kts 257°
2026-04-23 14:22 47.36808 14.93007 29151 ft 418 kts 257°
2026-04-23 14:22 47.35985 14.88875 29389 ft 422 kts 257°
2026-04-23 14:22 47.35135 14.84618 29634 ft 426 kts 257°
2026-04-23 14:22 47.34595 14.81925 29786 ft 428 kts 257°
2026-04-23 14:23 47.33886 14.78396 29985 ft 430 kts 257°
2026-04-23 14:23 47.33561 14.76779 30077 ft 431 kts 257°
2026-04-23 14:23 47.32713 14.72569 30316 ft 434 kts 257°
2026-04-23 14:23 47.31847 14.68283 30554 ft 437 kts 257°
2026-04-23 14:24 47.30976 14.63983 30783 ft 440 kts 257°
2026-04-23 14:24 47.30103 14.59672 31014 ft 442 kts 257°
2026-04-23 14:24 47.29228 14.55367 31241 ft 444 kts 256°
2026-04-23 14:24 47.28337 14.50996 31473 ft 446 kts 257°
2026-04-23 14:25 47.27448 14.46647 31709 ft 448 kts 256°
2026-04-23 14:25 47.26548 14.42251 31941 ft 450 kts 256°
2026-04-23 14:25 47.25644 14.37851 32175 ft 451 kts 256°
2026-04-23 14:25 47.24739 14.33460 32408 ft 451 kts 256°
2026-04-23 14:26 47.23837 14.29075 32639 ft 452 kts 255°
2026-04-23 14:26 47.22925 14.24647 32873 ft 452 kts 255°
2026-04-23 14:26 47.21724 14.18805 33185 ft 452 kts 255°
2026-04-23 14:26 47.20810 14.14381 33421 ft 451 kts 255°
2026-04-23 14:27 47.20210 14.11480 33575 ft 451 kts 255°
2026-04-23 14:27 47.19295 14.07080 33812 ft 450 kts 255°
2026-04-23 14:27 47.18378 14.02678 34046 ft 449 kts 255°
2026-04-23 14:27 47.17466 13.98317 34122 ft 453 kts 255°
2026-04-23 14:28 47.15597 13.89406 34144 ft 462 kts 255°
2026-04-23 14:28 47.13676 13.80300 34155 ft 472 kts 255°
2026-04-23 14:29 47.11716 13.71050 34161 ft 481 kts 255°
2026-04-23 14:29 47.09716 13.61638 34163 ft 490 kts 255°
2026-04-23 14:30 47.07324 13.50447 34157 ft 500 kts 254°
2026-04-23 14:30 47.05564 13.42259 34166 ft 507 kts 254°
2026-04-23 14:31 47.03451 13.32464 34163 ft 508 kts 253°
2026-04-23 14:31 47.00960 13.20956 34167 ft 508 kts 253°
2026-04-23 14:32 46.99166 13.12738 34163 ft 508 kts 253°
2026-04-23 14:32 46.97017 13.02922 34174 ft 509 kts 253°
2026-04-23 14:33 46.94864 12.93135 34197 ft 508 kts 253°
2026-04-23 14:33 46.92334 12.81698 34202 ft 508 kts 253°
2026-04-23 14:34 46.90509 12.73487 34220 ft 509 kts 253°
2026-04-23 14:34 46.88313 12.63748 34218 ft 509 kts 252°
2026-04-23 14:35 46.86090 12.53959 34274 ft 508 kts 253°
2026-04-23 14:35 46.83888 12.44207 34289 ft 507 kts 253°
2026-04-23 14:36 46.81675 12.34430 34291 ft 508 kts 252°
2026-04-23 14:36 46.79131 12.24913 34276 ft 508 kts 244°
2026-04-23 14:37 46.75986 12.15736 34291 ft 508 kts 242°
2026-04-23 14:37 46.72243 12.05101 34289 ft 507 kts 242°
2026-04-23 14:38 46.69574 11.97510 34291 ft 506 kts 242°
2026-04-23 14:38 46.66375 11.88415 34279 ft 498 kts 242°
2026-04-23 14:39 46.64821 11.84005 34238 ft 486 kts 242°
2026-04-23 14:39 46.63289 11.79664 33867 ft 481 kts 242°
2026-04-23 14:39 46.61775 11.75383 33510 ft 476 kts 242°
2026-04-23 14:39 46.59795 11.69750 33034 ft 470 kts 243°
2026-04-23 14:40 46.58810 11.66902 32791 ft 467 kts 243°
2026-04-23 14:40 46.57367 11.62706 32432 ft 463 kts 243°
2026-04-23 14:40 46.55938 11.58561 32078 ft 458 kts 243°
2026-04-23 14:40 46.54682 11.54928 31762 ft 457 kts 243°
2026-04-23 14:41 46.53037 11.50193 31345 ft 458 kts 243°
2026-04-23 14:41 46.51395 11.45478 30933 ft 459 kts 243°
2026-04-23 14:41 46.49800 11.40910 30533 ft 460 kts 243°
2026-04-23 14:41 46.48233 11.36426 30133 ft 457 kts 243°
2026-04-23 14:42 46.46733 11.32131 29750 ft 454 kts 242°
2026-04-23 14:42 46.45136 11.27563 29337 ft 455 kts 242°
2026-04-23 14:42 46.43552 11.23041 28937 ft 455 kts 242°
2026-04-23 14:42 46.41946 11.18472 28526 ft 455 kts 242°
2026-04-23 14:43 46.40313 11.13836 28111 ft 456 kts 242°
2026-04-23 14:43 46.38710 11.09302 27699 ft 456 kts 242°
2026-04-23 14:43 46.37053 11.04620 27282 ft 456 kts 242°
2026-04-23 14:43 46.35419 11.00015 26872 ft 456 kts 242°
2026-04-23 14:44 46.33759 10.95346 26455 ft 456 kts 242°
2026-04-23 14:44 46.32101 10.90687 26038 ft 456 kts 242°
2026-04-23 14:44 46.30437 10.86018 25622 ft 457 kts 243°
2026-04-23 14:44 46.28818 10.81379 25211 ft 457 kts 243°
2026-04-23 14:45 46.27209 10.76718 24791 ft 457 kts 243°
2026-04-23 14:45 46.25622 10.72138 24376 ft 457 kts 243°
2026-04-23 14:45 46.24000 10.67476 23962 ft 457 kts 243°
2026-04-23 14:45 46.22396 10.62885 23557 ft 458 kts 244°
2026-04-23 14:46 46.20795 10.58309 23155 ft 458 kts 244°
2026-04-23 14:46 46.19199 10.53759 22746 ft 458 kts 243°
2026-04-23 14:46 46.17569 10.49125 22329 ft 458 kts 244°
2026-04-23 14:46 46.15918 10.44439 21910 ft 458 kts 244°
2026-04-23 14:47 46.14234 10.39651 21479 ft 460 kts 244°
2026-04-23 14:47 46.12563 10.34907 21057 ft 461 kts 243°
2026-04-23 14:47 46.10904 10.30206 20638 ft 461 kts 243°
2026-04-23 14:47 46.09233 10.25482 20200 ft 461 kts 243°
2026-04-23 14:48 46.07509 10.20624 19780 ft 462 kts 243°
2026-04-23 14:48 46.05749 10.15861 19378 ft 463 kts 239°
2026-04-23 14:48 46.03622 10.11412 18967 ft 459 kts 231°
2026-04-23 14:48 46.01152 10.07519 18570 ft 449 kts 222°
2026-04-23 14:49 45.98553 10.04144 18177 ft 440 kts 220°
2026-04-23 14:49 45.96280 10.01306 17820 ft 434 kts 220°
2026-04-23 14:49 45.94013 9.98484 17450 ft 427 kts 220°
2026-04-23 14:49 45.91788 9.95700 17077 ft 421 kts 220°
2026-04-23 14:50 45.89582 9.92926 16723 ft 415 kts 220°
2026-04-23 14:50 45.87439 9.90241 16362 ft 410 kts 220°
2026-04-23 14:50 45.85312 9.87574 15988 ft 404 kts 220°
2026-04-23 14:50 45.83226 9.84957 15654 ft 399 kts 220°
2026-04-23 14:51 45.81137 9.82333 15299 ft 395 kts 220°
2026-04-23 14:51 45.79085 9.79752 14944 ft 390 kts 220°
2026-04-23 14:51 45.77064 9.77210 14618 ft 386 kts 221°
2026-04-23 14:51 45.75059 9.74691 14307 ft 380 kts 221°
2026-04-23 14:52 45.73121 9.72253 14255 ft 367 kts 221°
2026-04-23 14:52 45.71236 9.69884 14240 ft 353 kts 220°
2026-04-23 14:52 45.69446 9.67638 14241 ft 339 kts 220°
2026-04-23 14:52 45.67689 9.65437 14249 ft 328 kts 220°
2026-04-23 14:53 45.65914 9.63220 14250 ft 328 kts 220°
2026-04-23 14:53 45.64115 9.60973 14249 ft 328 kts 220°
2026-04-23 14:53 45.62271 9.58672 14250 ft 327 kts 220°
2026-04-23 14:53 45.60509 9.56474 14252 ft 328 kts 220°
2026-04-23 14:54 45.58669 9.54174 14250 ft 327 kts 221°
2026-04-23 14:54 45.56942 9.51779 14241 ft 314 kts 227°
2026-04-23 14:54 45.55465 9.49310 14239 ft 300 kts 232°
2026-04-23 14:54 45.54275 9.46919 14240 ft 287 kts 238°
2026-04-23 14:55 45.53208 9.44420 14243 ft 285 kts 240°
2026-04-23 14:55 45.52129 9.41820 14243 ft 285 kts 239°
2026-04-23 14:55 45.51090 9.39327 14244 ft 285 kts 239°
2026-04-23 14:55 45.49912 9.37075 14199 ft 282 kts 219°
2026-04-23 14:56 45.48223 9.35756 13965 ft 272 kts 192°
2026-04-23 14:56 45.46407 9.35704 13597 ft 261 kts 163°
2026-04-23 14:56 45.44593 9.36567 13135 ft 258 kts 154°
2026-04-23 14:56 45.42759 9.37626 12655 ft 257 kts 153°
2026-04-23 14:57 45.40960 9.38707 12139 ft 254 kts 153°
2026-04-23 14:57 45.39534 9.39574 11764 ft 247 kts 153°
2026-04-23 14:57 45.37984 9.40524 11316 ft 241 kts 153°
2026-04-23 14:57 45.36333 9.41546 10827 ft 236 kts 154°
2026-04-23 14:58 45.34513 9.42277 10311 ft 234 kts 167°
2026-04-23 14:58 45.32814 9.42690 9820 ft 232 kts 169°
2026-04-23 14:58 45.31031 9.43097 9306 ft 231 kts 169°
2026-04-23 14:58 45.29270 9.43503 8806 ft 229 kts 169°
2026-04-23 14:59 45.27591 9.43898 8336 ft 226 kts 169°
2026-04-23 14:59 45.25874 9.44308 7846 ft 224 kts 169°
2026-04-23 14:59 45.24127 9.44735 7337 ft 222 kts 169°
2026-04-23 14:59 45.22477 9.45149 6856 ft 220 kts 169°
2026-04-23 15:00 45.20842 9.45571 6371 ft 218 kts 169°
2026-04-23 15:00 45.19152 9.45927 5862 ft 217 kts 173°
2026-04-23 15:00 45.17421 9.46193 5340 ft 215 kts 174°
2026-04-23 15:00 45.15704 9.46442 4827 ft 213 kts 174°
2026-04-23 15:01 45.14039 9.46680 4461 ft 208 kts 174°
2026-04-23 15:01 45.12445 9.46908 4133 ft 207 kts 174°
2026-04-23 15:01 45.10845 9.47022 3781 ft 206 kts 191°
2026-04-23 15:01 45.09475 9.46167 3485 ft 204 kts 212°
2026-04-23 15:02 45.08232 9.45060 3175 ft 203 kts 214°
2026-04-23 15:02 45.07112 9.43724 3014 ft 200 kts 240°
2026-04-23 15:02 45.06779 9.41856 3046 ft 197 kts 272°
2026-04-23 15:02 45.06981 9.39766 3026 ft 197 kts 295°
2026-04-23 15:03 45.07769 9.37928 3050 ft 197 kts 306°
2026-04-23 15:03 45.08781 9.36324 3042 ft 197 kts 323°
2026-04-23 15:03 45.09946 9.35120 3043 ft 198 kts 326°
2026-04-23 15:03 45.11162 9.33927 3045 ft 198 kts 328°
2026-04-23 15:04 45.12625 9.33103 3050 ft 197 kts 346°
2026-04-23 15:04 45.14088 9.32522 3048 ft 200 kts 341°
2026-04-23 15:04 45.15497 9.31703 3036 ft 195 kts 337°
2026-04-23 15:04 45.16818 9.31016 3029 ft 178 kts 345°
2026-04-23 15:05 45.18048 9.30651 3026 ft 165 kts 352°
2026-04-23 15:05 45.19157 9.30466 3019 ft 153 kts 354°
2026-04-23 15:05 45.20194 9.30334 3008 ft 141 kts 355°
2026-04-23 15:05 45.21167 9.30224 3043 ft 145 kts 355°
2026-04-23 15:06 45.22298 9.30100 3058 ft 160 kts 355°
2026-04-23 15:06 45.23555 9.29964 3056 ft 168 kts 355°
2026-04-23 15:06 45.24908 9.29819 3055 ft 176 kts 356°
2026-04-23 15:06 45.26338 9.29666 3051 ft 181 kts 356°
2026-04-23 15:07 45.27818 9.29506 3040 ft 183 kts 356°
2026-04-23 15:07 45.29248 9.29351 3028 ft 180 kts 356°
2026-04-23 15:07 45.30739 9.29190 2813 ft 186 kts 356°
2026-04-23 15:07 45.32205 9.29032 2522 ft 180 kts 356°
2026-04-23 15:08 45.33542 9.28888 2268 ft 177 kts 355°
2026-04-23 15:08 45.34839 9.28748 2023 ft 175 kts 355°
2026-04-23 15:08 45.36138 9.28608 1776 ft 172 kts 355°
2026-04-23 15:09 45.38701 9.28332 1298 ft 164 kts 355°
2026-04-23 15:09 45.39963 9.28198 1070 ft 163 kts 357°
2026-04-23 15:09 45.41219 9.28139 807 ft 165 kts 355°
2026-04-23 15:09 45.42493 9.27963 574 ft 163 kts 355°
2026-04-23 15:10 45.43659 9.27798 352 ft 153 kts 360°
2026-04-23 15:10 45.44513 9.27716 352 ft 78 kts 354°
2026-04-23 15:10 45.44797 9.27664 359 ft 10 kts 358°
2026-04-23 15:10 45.44872 9.27660 360 ft 10 kts 359°
2026-04-23 15:11 45.44976 9.27654 358 ft 15 kts 356°
2026-04-23 15:11 45.45090 9.27644 358 ft 16 kts 355°
2026-04-23 15:11 45.45208 9.27636 357 ft 17 kts
2026-04-23 15:11 45.45336 9.27681 355 ft 20 kts 20°
2026-04-23 15:12 45.45443 9.27771 355 ft 3 kts 54°
2026-04-23 15:12 45.45453 9.27814 355 ft 4 kts 75°
2026-04-23 15:12 45.45455 9.27869 355 ft 6 kts 90°
2026-04-23 15:12 45.45457 9.27934 357 ft 5 kts 84°
2026-04-23 15:13 45.45464 9.27969 357 ft 2 kts 45°
2026-04-23 15:13 45.45477 9.27974 357 ft 0 kts 360°
2026-04-23 15:13 45.45535 9.27995 358 ft 8 kts 41°
2026-04-23 15:13 45.45541 9.28037 360 ft 0 kts 106°